[[{"header":{"parameterUnit":"m.s-1","parameterCategory":1,"la1":30.2991,"la2":30.254,"lo1":-89.0895,"lo2":-89.0444,"dy":0.0017,"dx":0.0017,"nx":28,"ny":28,"refTime":"2025-08-15T21:00:00:Z","depth":0,"parameterNumber":2,"parameterNumberName":"U-component_of_WINDS"},"data":[0,0,0,0,0,0,0,0,0,0,0,0,0,0,0,0,0,0,0,0,0,0,0,0,0,0,0,0,0,0,0,0,0,0,0,0,0,0,0,0,0,0,0,0,0,0,0,0,0,0,0,0,0,0,0,0,0,0,1.5833,1.5833,0,1.5825,1.5825,1.5825,1.5764,1.5762,1.5761,1.5759,1.5751,1.5752,1.5753,0,0,0,0,0,0,0,0,0,0,0,0,0,1.5797,1.5798,1.5833,1.5833,1.5833,1.5825,1.5825,1.5825,1.5764,1.5762,1.576,1.5759,1.5751,1.5752,1.5754,0,0,0,0,0,0,0,0,0,0,0,0,0,1.5803,1.5798,1.5833,1.5801,1.5798,1.5825,1.5825,1.5825,1.5764,1.5762,1.576,1.5758,1.575,1.5752,1.5754,1.581,0,0,1.5759,1.576,0,0,0,0,0,0,0,0,1.5803,1.5805,1.5806,1.5804,1.58,1.5793,1.5809,1.582,1.5765,1.5777,1.5759,1.5757,1.5767,1.5767,1.5771,1.5809,1.5809,1.5759,1.576,1.5761,1.5762,0,0,0,0,0,0,0,1.5803,1.5805,1.583,1.5806,1.5803,1.5788,1.5787,1.5811,1.5785,1.5776,1.5772,1.5771,1.5765,1.5769,1.577,1.5809,1.5759,1.5761,1.5762,1.5763,1.5895,1.5897,0,0,0,0,0,0,1.5806,1.5805,1.583,1.5829,1.5796,1.5791,1.5789,1.5798,1.5784,1.578,1.5773,1.5769,1.5767,1.5768,1.5769,1.5835,1.5761,1.5763,1.5764,1.5893,1.5896,1.5898,0,0,0,0,0,0,1.5806,1.5809,1.583,1.5816,1.5817,1.5794,1.5804,1.5799,1.5803,1.5782,1.5777,1.5782,1.5765,1.5767,1.5801,1.5834,1.5764,1.5765,1.589,1.5893,1.5897,1.5966,0,0,0,0,0,0,1.5805,1.5809,1.583,1.5817,1.5818,1.5861,1.5806,1.58,1.5806,1.58,1.5789,1.5786,1.5764,1.5798,1.5802,1.5835,1.5767,1.5887,1.5891,1.5896,1.5961,1.5972,1.5981,0,0,0,0,0,1.5804,1.5849,1.5831,1.5835,1.5843,1.5863,1.5864,1.5838,1.5809,1.583,1.5817,1.5786,1.583,1.5802,1.5806,1.584,1.5884,1.589,1.5895,1.5956,1.597,1.5981,0,0,0,0,0,0,1.5866,1.5847,1.5827,1.5869,1.5868,1.5853,1.5878,1.5853,1.586,1.5854,1.5821,1.582,1.5859,1.5852,1.5822,1.5894,1.5852,1.5858,1.5897,1.5909,1.5919,1.592,1.5768,0,0,0,0,0,1.5885,1.5903,1.5885,1.5924,1.5925,1.5902,1.5909,1.5889,1.5887,1.5887,1.5876,1.5876,1.5889,1.5899,1.591,1.596,1.5957,1.5985,1.5996,1.6004,1.601,1.6037,1.605,1.5916,1.5916,1.5916,0,0,1.5924,1.5915,1.5928,1.5936,1.5933,1.5953,1.5902,1.5924,1.5938,1.589,1.5921,1.5914,1.5911,1.5954,1.5972,1.595,1.6047,1.6011,1.6018,1.6019,1.6044,1.6057,1.6068,1.592,1.5919,1.5919,0,0,1.6004,1.5999,1.6032,1.6031,1.6027,1.6012,1.602,1.6009,1.6003,1.6034,1.5999,1.6015,1.6039,1.6039,1.6042,1.6126,1.6098,1.6131,1.6184,1.6211,1.6221,1.623,1.6261,1.6272,1.6137,1.6137,1.6137,0,1.6053,1.608,1.6052,1.6077,1.6082,1.6041,1.6074,1.6074,1.6075,1.608,1.6055,1.6086,1.6081,1.6123,1.6144,1.6147,1.6156,1.6131,1.6222,1.6231,1.6239,1.6268,1.6279,1.6141,1.614,1.614,1.614,0,1.6141,1.6161,1.6188,1.619,1.6198,1.6227,1.6205,1.6216,1.6197,1.6184,1.6218,1.6211,1.622,1.6229,1.6209,1.627,1.6256,1.6228,1.6184,1.6256,1.6283,1.6293,1.6147,1.6145,1.6144,1.6143,0,0,1.6258,1.6247,1.6257,1.6259,1.6253,1.6268,1.6296,1.6306,1.6318,1.632,1.6343,1.6366,1.634,1.6343,1.6324,1.6347,1.6415,1.6316,1.6315,1.6335,1.6482,1.6504,1.6517,1.6397,1.6399,1.6401,1.6483,0,1.6336,1.6384,1.636,1.641,1.6429,1.6391,1.6416,1.6415,1.6405,1.642,1.6409,1.6426,1.639,1.6392,1.6414,1.6403,1.6445,1.6396,1.6419,1.642,1.6421,1.6531,1.6554,1.6631,1.6493,1.6495,1.6496,0,1.6433,1.6441,1.6493,1.6486,1.6493,1.6516,1.6524,1.6539,1.6538,1.6529,1.6535,1.651,1.6538,1.6495,1.6534,1.6502,1.651,1.6506,1.6509,1.651,1.6462,1.6536,1.6655,1.6667,1.6512,1.651,1.6509,0,1.6515,1.6538,1.6573,1.6575,1.6568,1.6585,1.6582,1.6579,1.6588,1.6595,1.6601,1.6611,1.6617,1.6627,1.6606,1.6577,1.6648,1.6603,1.6642,1.6643,1.6658,1.6658,1.6782,1.6664,1.6663,1.6663,1.6663,0,1.6605,1.6638,1.661,1.6631,1.6669,1.6642,1.668,1.6673,1.6672,1.6692,1.6659,1.6679,1.665,1.6667,1.6651,1.6687,1.6689,1.6683,1.6679,1.6686,1.6687,1.6691,1.6685,1.6666,1.6665,1.6665,1.6664,0,1.6702,1.6684,1.672,1.671,1.6709,1.6737,1.6728,1.6748,1.6737,1.6763,1.6767,1.6749,1.6768,1.6748,1.6765,1.6755,1.6802,1.6789,1.6802,1.6799,1.6839,1.6836,1.697,1.6986,1.6858,1.6859,1.686,0,1.676,1.6785,1.6779,1.679,1.679,1.6809,1.6817,1.6793,1.6804,1.6806,1.6826,1.6842,1.6853,1.6885,1.6874,1.6887,1.6875,1.6921,1.6876,1.6884,1.6876,1.6875,1.6878,1.693,1.6931,1.6933,1.6934,0,1.6866,1.6856,1.687,1.6882,1.6894,1.6901,1.6907,1.6918,1.6893,1.6907,1.6926,1.6935,1.6953,1.6969,1.698,1.6977,1.6952,1.6948,1.6958,1.6966,1.6972,1.697,1.6827,1.6945,1.6944,1.6943,1.6942,1.6942,1.6945,1.6967,1.6966,1.6984,1.6985,1.6992,1.701,1.7002,1.7017,1.703,1.7015,1.7039,1.704,1.7051,1.7052,1.707,1.7051,1.7065,1.7068,1.7072,1.7078,1.697,1.7072,1.7072,1.7071,1.7071,1.7071,0,1.705,1.7048,1.7064,1.7074,1.7088,1.7063,1.7068,1.7082,1.7103,1.7106,1.7118,1.7141,1.7158,1.7148,1.7163,1.7179,1.7168,1.7184,1.7183,1.7183,1.7095,1.7085,1.7193,1.7193,1.7193,1.7193,1.7193,1.7193,1.7106,1.7141,1.7132,1.7169,1.7167,1.719,1.7196,1.7202,1.7204,1.7231,1.7245,1.7239,1.7237,1.7252,1.7266,1.7263,1.727,1.729,1.7283,1.7201,1.7189,1.7177,1.7168,1.7292,1.7292,1.7369,1.737,1.7371]},{"header":{"parameterUnit":"m.s-1","parameterCategory":1,"la1":30.2991,"la2":30.254,"lo1":-89.0895,"lo2":-89.0444,"dy":0.0017,"dx":0.0017,"nx":28,"ny":28,"refTime":"2025-08-15T21:00:00:Z","depth":0,"parameterNumber":3,"parameterNumberName":"V-component_of_WINDS"},"data":[0,0,0,0,0,0,0,0,0,0,0,0,0,0,0,0,0,0,0,0,0,0,0,0,0,0,0,0,0,0,0,0,0,0,0,0,0,0,0,0,0,0,0,0,0,0,0,0,0,0,0,0,0,0,0,0,0,0,-2.2314,-2.2315,0,-2.2419,-2.242,-2.2421,-2.2432,-2.2431,-2.243,-2.2429,-2.2535,-2.2539,-2.2543,0,0,0,0,0,0,0,0,0,0,0,0,0,-2.2122,-2.2125,-2.2314,-2.2315,-2.2316,-2.2419,-2.242,-2.2422,-2.2433,-2.2431,-2.243,-2.2429,-2.2534,-2.2539,-2.2543,0,0,0,0,0,0,0,0,0,0,0,0,0,-2.2214,-2.2126,-2.2314,-2.2334,-2.2337,-2.2418,-2.242,-2.2422,-2.2433,-2.2431,-2.243,-2.2428,-2.2533,-2.2538,-2.2544,-2.2611,0,0,-2.2561,-2.2564,0,0,0,0,0,0,0,0,-2.2209,-2.2221,-2.233,-2.2333,-2.2336,-2.2411,-2.2391,-2.2485,-2.2433,-2.2397,-2.2429,-2.2427,-2.2495,-2.2504,-2.2527,-2.2616,-2.2621,-2.2562,-2.2565,-2.2568,-2.2569,0,0,0,0,0,0,0,-2.2202,-2.2216,-2.2355,-2.2332,-2.2336,-2.2338,-2.2349,-2.2409,-2.2453,-2.24,-2.2401,-2.2413,-2.2497,-2.2521,-2.253,-2.2622,-2.2562,-2.2567,-2.257,-2.2572,-2.2772,-2.2774,0,0,0,0,0,0,-2.2192,-2.2211,-2.2352,-2.2359,-2.2267,-2.2343,-2.2355,-2.2389,-2.2453,-2.2461,-2.2414,-2.2413,-2.2512,-2.2523,-2.2533,-2.2617,-2.2568,-2.2573,-2.2576,-2.277,-2.2772,-2.2774,0,0,0,0,0,0,-2.2188,-2.2205,-2.2348,-2.2285,-2.2304,-2.2348,-2.2385,-2.2392,-2.2416,-2.2464,-2.2472,-2.2432,-2.2512,-2.2525,-2.2592,-2.262,-2.2576,-2.2581,-2.2768,-2.2771,-2.2773,-2.2783,0,0,0,0,0,0,-2.2182,-2.2203,-2.2229,-2.2286,-2.2307,-2.2405,-2.2387,-2.2395,-2.2426,-2.2426,-2.2482,-2.249,-2.2511,-2.2583,-2.2598,-2.2627,-2.2585,-2.2766,-2.2769,-2.2772,-2.2781,-2.2786,-2.2791,0,0,0,0,0,-2.2176,-2.2227,-2.2231,-2.2247,-2.2341,-2.2406,-2.2419,-2.2442,-2.2429,-2.2455,-2.2486,-2.2488,-2.2615,-2.259,-2.2606,-2.2638,-2.2764,-2.2768,-2.2772,-2.2778,-2.2785,-2.2791,0,0,0,0,0,0,-2.2173,-2.2235,-2.2239,-2.2311,-2.2354,-2.2408,-2.2442,-2.2449,-2.2495,-2.2493,-2.252,-2.2533,-2.2598,-2.2625,-2.2596,-2.2707,-2.2688,-2.2696,-2.2687,-2.2694,-2.2699,-2.2691,-2.259,0,0,0,0,0,-2.218,-2.2229,-2.2281,-2.2339,-2.236,-2.2398,-2.2427,-2.2442,-2.2487,-2.2505,-2.254,-2.2583,-2.2633,-2.2665,-2.2713,-2.2785,-2.2797,-2.2815,-2.282,-2.2824,-2.283,-2.287,-2.2878,-2.2788,-2.2788,-2.2788,0,0,-2.2197,-2.2237,-2.2266,-2.234,-2.2374,-2.2424,-2.2413,-2.2465,-2.2502,-2.2513,-2.2578,-2.2605,-2.2655,-2.2725,-2.2757,-2.2749,-2.2857,-2.2829,-2.2832,-2.2836,-2.2875,-2.2883,-2.2891,-2.2791,-2.2791,-2.279,0,0,-2.2252,-2.2288,-2.234,-2.2375,-2.2428,-2.2453,-2.2465,-2.2519,-2.2538,-2.2604,-2.2613,-2.2657,-2.2742,-2.2777,-2.2806,-2.2875,-2.2879,-2.289,-2.2917,-2.2955,-2.2962,-2.2969,-2.2994,-2.3002,-2.2896,-2.2896,-2.2896,0,-2.2266,-2.2341,-2.2366,-2.2419,-2.2451,-2.2464,-2.2517,-2.2549,-2.2615,-2.2637,-2.2627,-2.2734,-2.2768,-2.2846,-2.2863,-2.2886,-2.2901,-2.2884,-2.2959,-2.2966,-2.2972,-2.2996,-2.3006,-2.2897,-2.2897,-2.2897,-2.2897,0,-2.2355,-2.2407,-2.2443,-2.2507,-2.2543,-2.2596,-2.2629,-2.2663,-2.2674,-2.27,-2.2767,-2.2809,-2.2866,-2.2886,-2.2897,-2.2965,-2.2959,-2.2954,-2.2935,-2.2982,-2.3005,-2.3014,-2.2899,-2.2898,-2.2898,-2.2898,0,0,-2.2411,-2.2489,-2.2501,-2.253,-2.259,-2.263,-2.2684,-2.274,-2.2768,-2.2813,-2.2859,-2.293,-2.2926,-2.2959,-2.2975,-2.3009,-2.3062,-2.3,-2.3002,-2.301,-2.3139,-2.3142,-2.3153,-2.3065,-2.3067,-2.3068,-2.3135,0,-2.2473,-2.2569,-2.2593,-2.2675,-2.2723,-2.2736,-2.2782,-2.2823,-2.2849,-2.2893,-2.2921,-2.2972,-2.2963,-2.2983,-2.3017,-2.3048,-2.3088,-2.3043,-2.3107,-2.3109,-2.3094,-2.3165,-2.3168,-2.3229,-2.3144,-2.3146,-2.3147,0,-2.2558,-2.2605,-2.2692,-2.2745,-2.2766,-2.2808,-2.2862,-2.2904,-2.2951,-2.2967,-2.3004,-2.3017,-2.3073,-2.3052,-2.3129,-2.3099,-2.3126,-2.3145,-2.3148,-2.3155,-2.313,-2.3173,-2.3249,-2.3258,-2.3161,-2.316,-2.3159,0,-2.259,-2.2675,-2.2738,-2.2763,-2.2827,-2.2855,-2.2883,-2.2929,-2.2961,-2.3008,-2.303,-2.3082,-2.3111,-2.3151,-2.3178,-2.316,-2.3253,-2.3234,-2.3268,-2.3267,-2.3287,-2.3285,-2.3368,-2.3304,-2.3304,-2.3304,-2.3304,0,-2.2657,-2.2709,-2.2754,-2.2792,-2.2851,-2.2879,-2.2936,-2.2964,-2.3005,-2.3049,-2.3063,-2.3104,-2.3137,-2.3183,-2.3204,-2.3265,-2.3277,-2.3292,-2.3297,-2.3291,-2.3289,-2.3309,-2.3305,-2.3307,-2.3306,-2.3306,-2.3305,0,-2.2702,-2.2734,-2.2804,-2.2859,-2.2874,-2.2915,-2.2962,-2.3,-2.3026,-2.3081,-2.3096,-2.3137,-2.3191,-2.3222,-2.329,-2.3304,-2.3372,-2.3375,-2.3356,-2.3359,-2.339,-2.3387,-2.3489,-2.3504,-2.3431,-2.3431,-2.3432,0,-2.2742,-2.2783,-2.2843,-2.2873,-2.2902,-2.2951,-2.2985,-2.3013,-2.3048,-2.3105,-2.3136,-2.3191,-2.3237,-2.3323,-2.3359,-2.3411,-2.3415,-2.3447,-2.3423,-2.3416,-2.3416,-2.3413,-2.3417,-2.3451,-2.3452,-2.3453,-2.3453,0,-2.2811,-2.2824,-2.2872,-2.2926,-2.2965,-2.3009,-2.3052,-2.3076,-2.3112,-2.315,-2.3206,-2.3241,-2.3311,-2.3366,-2.3421,-2.345,-2.3458,-2.3461,-2.3471,-2.3465,-2.3453,-2.346,-2.3368,-2.3458,-2.3458,-2.3457,-2.3457,-2.3457,-2.2855,-2.2892,-2.2939,-2.2992,-2.3028,-2.3068,-2.3106,-2.3137,-2.3185,-2.3244,-2.3258,-2.3317,-2.3364,-2.3439,-2.3469,-2.3515,-2.351,-2.3525,-2.3529,-2.3532,-2.3533,-2.3445,-2.3526,-2.3525,-2.3525,-2.3525,-2.3525,0,-2.2924,-2.2955,-2.3003,-2.3063,-2.3105,-2.3109,-2.3157,-2.3192,-2.3243,-2.3286,-2.3331,-2.3396,-2.3449,-2.3489,-2.3544,-2.3573,-2.3578,-2.3587,-2.3585,-2.3591,-2.3535,-2.3521,-2.3582,-2.3582,-2.3582,-2.3582,-2.3582,-2.3582,-2.2964,-2.3027,-2.3046,-2.3127,-2.3158,-2.3216,-2.3243,-2.328,-2.3315,-2.3386,-2.3431,-2.3457,-2.3499,-2.3556,-2.3605,-2.3616,-2.3635,-2.3643,-2.3654,-2.3601,-2.3595,-2.3589,-2.3576,-2.3647,-2.3647,-2.3706,-2.3707,-2.3707]}]]